Home   Weather   Sachs Harbour   Past weeks

Flag for Canada Past Weather in Sachs Harbour, Northwest Territories, Canada — Yesterday and Last 2 Weeks

Now
36 °F

Chilly.


Feels Like: 25 °F
Forecast: 30 / 33 °F
Wind: 18 mph from Northwest

Location: Cape Parry

Current Time: Sep 24, 2016 at 11:33:19 PM

Latest Report: Sep 24, 2016 at 11:00 PM


Visibility: 5 mi

Pressure: 29.82 "Hg

Humidity: 87%

Dew Point: 32 °F

Location of Sachs HarbourLocation

Past Weather in Sachs Harbour — Graph

°F

Sachs Harbour Temperature Yesterday

Maximum temperature yesterday: 48 °F (at 2:00 PM)
Minimum temperature yesterday: 41 °F (at 4:00 AM)
Average temperature yesterday: 45 °F

High & Low Weather Summary for the Past Weeks

 TemperatureHumidityPressure
High50 °F (Sep 21, 5:00 PM)100% (Sep 10, 4:00 AM)30.03 "Hg (Sep 10, 4:00 AM)
Low28 °F (Sep 13, 12:48 AM)55% (Sep 13, 9:00 PM)29.05 "Hg (Sep 23, 6:00 AM)
Average36 °F82%29.63 "Hg
* Reported Sep 9 10:00 PM — Sep 24 10:00 PM, Sachs Harbour, Weather by CustomWeather, © 2016

Note: Actual official high and low records may vary slightly from our data, if they occured in-between our weather recording intervals... More about our weather records

Advertising

Sachs Harbour Weather History for the Previous 24 Hours

Scroll right to see more
 ConditionsComfort  
Time TempWeatherWind HumidityBarometerVisibility
10:00 PM
Sat, Sep 24
37 °FChilly.17 mph87%29.80 "Hg5 mi
9:00 PM37 °FChilly.14 mph87%29.80 "Hg5 mi
8:00 PM37 °FChilly.17 mph87%29.78 "Hg5 mi
7:00 PM37 °FChilly.16 mph93%29.77 "Hg5 mi
6:00 PM39 °FChilly.17 mph93%29.75 "Hg5 mi
5:00 PM39 °FChilly.15 mph93%29.73 "Hg7 mi
4:00 PM37 °FChilly.17 mph93%29.71 "Hg7 mi
3:00 PM37 °FChilly.21 mph93%29.68 "Hg5 mi
2:00 PM39 °FChilly.18 mph93%29.65 "Hg7 mi
1:00 PM39 °FChilly.20 mph87%29.64 "Hg7 mi
12:00 PM41 °FQuite cool.15 mph81%29.62 "Hg5 mi
11:00 AM41 °FQuite cool.15 mph81%29.60 "Hg5 mi
10:00 AM39 °FChilly.14 mph87%29.58 "Hg5 mi
9:00 AM39 °FChilly.12 mph87%29.56 "Hg7 mi
8:00 AM43 °FQuite cool.9 mph76%29.54 "Hg7 mi
7:00 AM45 °FQuite cool.9 mph76%29.53 "Hg7 mi
6:00 AM46 °FCool.10 mph76%29.51 "Hg7 mi
5:00 AM46 °FCool.9 mph71%29.49 "Hg7 mi
4:00 AM48 °FCool.8 mph66%29.49 "Hg7 mi
3:00 AM50 °FCool.7 mph62%29.47 "Hg7 mi
2:00 AM48 °FCool.7 mph66%29.45 "Hg7 mi
1:00 AM50 °FCool.7 mph62%29.44 "Hg7 mi
12:00 AM48 °FCool.8 mph66%29.43 "Hg7 mi
11:00 PM
Fri, Sep 23
46 °FCool.6 mph71%29.41 "Hg7 mi
Weather by CustomWeather, © 2016

See weather overviewHow to use our weather pages